Location: Moscow Pond
(43.6842°N, 73.2366°W)
Time: 21:39:07
(UTC+00:00)

Meteor 2-14 Rocket - Pass Details

Date: 08 November 2025
Orbit: 936 x 957 km, 82.5° (Epoch: 05 December)

Event Time Altitude Azimuth Distance (km) Brightness Sun altitude
Rises 09:13:51 0° 189° (S) 3,609 7.4 -26.3°
Reaches altitude 10° 09:16:20 10° 190° (S) 2,665 6.7 -25.9°
Maximum altitude 09:22:26 81° 278° (W) 962 4.3 -24.8°
Drops below altitude 10° 09:28:34 10° 7° (N) 2,669 6.8 -23.7°
Sets 09:31:03 0° 8° (N) 3,615 7.6 -23.2°
